Tracking 26218 objects as of 27-Sep-2022
HD Live streaming from Space Station
objects crossing your sky now

STARLINK-4631

Track STARLINK-4631 now!
10-day predictions
STARLINK-4631 is classified as:


NORAD ID: 53786
Int'l Code: 2022-111P
Perigee: 356.0 km
Apogee: 357.8 km
Inclination: 53.2 °
Period: 91.5 minutes
Semi major axis: 6727 km
RCS: Unknown
Launch date: September 11, 2022
Source: United States (US)
Launch site: AIR FORCE EASTERN TEST RANGE (AFETR)
aabbcc
Your satellite tracking list
Your tracking list is empty




NASA's NSSDC Master Catalog

Two Line Element Set (TLE):
1 53786U 22111P   22270.58334491  .00107256  00000-0  75920-3 0  9993
2 53786  53.2166 185.3199 0001335 135.4869  37.7012 15.73190906  2539
Source of the keplerian elements: AFSPC